This is the latest recevied weather packets stored in our database for station/object IZ5MJO-13. If no packets are shown the sender has not sent any weather packets the latest 10 day(s).
| Time | Temp. | Humidity | Pressure | Rain* | Wind** | Luminosity | Snow |
|---|---|---|---|---|---|---|---|
| 1788161707 | 22.78° C | 63% | 1006.7 hPa | - | - | - | - |
| 1788160806 | 22.78° C | 62% | 1006.8 hPa | - | - | - | - |
| 1788159906 | 22.78° C | 57% | 1006.6 hPa | - | - | - | - |
| 1788159006 | 22.22° C | 62% | 1006.6 hPa | - | - | - | - |
| 1788158106 | 21.11° C | 62% | 1006.5 hPa | - | - | - | - |
| 1788157206 | 21.67° C | 66% | 1006.5 hPa | - | - | - | - |
| 1788156305 | 21.11° C | 63% | 1006.3 hPa | - | - | - | - |
| 1788155410 | 20.56° C | 61% | 1006.4 hPa | - | - | - | - |
| 1788154510 | 20.56° C | 66% | 1006.3 hPa | - | - | - | - |
| 1788153610 | 20.56° C | 68% | 1006.1 hPa | - | - | - | - |
| 1788152709 | 20° C | 68% | 1006 hPa | - | - | - | - |
| 1788151809 | 20° C | 67% | 1006 hPa | - | - | - | - |
| 1788150909 | 20° C | 66% | 1005.9 hPa | - | - | - | - |
| 1788150008 | 20° C | 67% | 1005.8 hPa | - | - | - | - |
| 1788149108 | 20.56° C | 66% | 1005.9 hPa | - | - | - | - |
| 1788147308 | 20.56° C | 65% | 1005.7 hPa | - | - | - | - |
| 1788146407 | 20.56° C | 65% | 1005.9 hPa | - | - | - | - |
| 1788145507 | 21.11° C | 64% | 1005.8 hPa | - | - | - | - |
| 1788144607 | 21.11° C | 63% | 1005.9 hPa | - | - | - | - |
| 1788143707 | 21.11° C | 62% | 1005.9 hPa | - | - | - | - |
| 1788142807 | 20.56° C | 62% | 1006 hPa | - | - | - | - |
| 1788141906 | 20.56° C | 62% | 1006 hPa | - | - | - | - |
| 1788141006 | 20.56° C | 64% | 1005.9 hPa | - | - | - | - |
| 1788140106 | 20.56° C | 63% | 1006 hPa | - | - | - | - |
| 1788139205 | 20.56° C | 63% | 1006 hPa | - | - | - | - |
* Rain since midnight (hover to see other rain measurements)
** Current wind speed in m/s (hover to see current wind gust speed)